• In Czech Republic
  • List of Countries
  • For 7 days
  • Water Temperature
  • Satellite Maps
  • Weather Map
  • Weather Widgets
  • user-avatar
    Login

    Hourly Weather Nkongsamba

    Today, 22 October, Monday

    Time Temperature Precipitation Wind Pressure Humidity
    00:00 +22°C° 0.3 mm 1 mps 684 mmHg 93%
    01:00 +21°C° 0 mm 1 mps 684 mmHg 93%
    02:00 +21°C° 0.8 mm 1 mps 684 mmHg 93%
    03:00 +21°C° 0.8 mm 1 mps 684 mmHg 93%
    04:00 +21°C° 0.8 mm 1 mps 684 mmHg 93%
    05:00 +21°C° 0.4 mm 1 mps 684 mmHg 93%
    06:00 +21°C° 0.4 mm 1 mps 684 mmHg 92%
    07:00 +22°C° 0.4 mm 1 mps 685 mmHg 91%
    08:00 +24°C° 0.2 mm 1 mps 685 mmHg 81%
    09:00 +26°C° 0.2 mm 1 mps 686 mmHg 72%
    10:00 +28°C° 0.2 mm 1 mps 686 mmHg 63%
    11:00 +29°C° 0.4 mm 1 mps 686 mmHg 62%
    12:00 +30°C° 0.4 mm 1 mps 685 mmHg 61%
    13:00 +30°C° 0.4 mm 2 mps 685 mmHg 59%
    14:00 +29°C° 1.2 mm 1 mps 684 mmHg 66%
    15:00 +28°C° 1.2 mm 1 mps 684 mmHg 72%
    16:00 +28°C° 1.2 mm 1 mps 683 mmHg 78%
    17:00 +26°C° 1.7 mm 1 mps 684 mmHg 83%
    18:00 +24°C° 1.7 mm 1 mps 684 mmHg 87%
    19:00 +21°C° 1.7 mm 0 mps 684 mmHg 92%
    20:00 +21°C° 0.7 mm 0 mps 685 mmHg 92%
    21:00 +22°C° 0.7 mm 1 mps 685 mmHg 93%
    22:00 +22°C° 0.7 mm 1 mps 685 mmHg 93%
    23:00 +22°C° 0.4 mm 1 mps 685 mmHg 93%

    Tomorrow, 23 October, Tuesday

    Time Temperature Precipitation Wind Pressure Humidity
    00:00 +22°C° 0.4 mm 1 mps 685 mmHg 93%
    01:00 +21°C° 0.4 mm 1 mps 685 mmHg 93%
    02:00 +21°C° 0.3 mm 1 mps 685 mmHg 93%
    03:00 +21°C° 0.3 mm 1 mps 684 mmHg 93%
    04:00 +21°C° 0.3 mm 1 mps 684 mmHg 92%
    05:00 +21°C° 0.1 mm 1 mps 684 mmHg 91%
    06:00 +21°C° 0.1 mm 1 mps 685 mmHg 90%
    07:00 +22°C° 0.1 mm 1 mps 685 mmHg 89%
    08:00 +24°C° 0.1 mm 1 mps 686 mmHg 80%
    09:00 +26°C° 0.1 mm 1 mps 687 mmHg 70%
    10:00 +29°C° 0.1 mm 1 mps 688 mmHg 60%
    11:00 +29°C° 0.8 mm 1 mps 687 mmHg 61%
    12:00 +30°C° 0.8 mm 1 mps 687 mmHg 61%
    13:00 +31°C° 0.8 mm 1 mps 686 mmHg 61%
    14:00 +30°C° 1.3 mm 1 mps 685 mmHg 63%
    15:00 +30°C° 1.3 mm 1 mps 685 mmHg 65%
    16:00 +29°C° 1.3 mm 1 mps 684 mmHg 66%
    17:00 +27°C° 1.5 mm 1 mps 685 mmHg 75%
    18:00 +25°C° 1.5 mm 1 mps 685 mmHg 83%
    19:00 +23°C° 1.5 mm 1 mps 685 mmHg 91%
    20:00 +23°C° 0.7 mm 1 mps 685 mmHg 92%
    21:00 +20°C° 0.7 mm 0 mps 686 mmHg 93%
    22:00 +20°C° 0.7 mm 0 mps 686 mmHg 95%
    23:00 +20°C° 1.1 mm 0 mps 686 mmHg 95%

    Day after tomorrow, 24 October, Wednesday

    Time Temperature Precipitation Wind Pressure Humidity
    00:00 +22°C° 1.1 mm 1 mps 686 mmHg 95%
    01:00 +21°C° 1.1 mm 1 mps 686 mmHg 95%
    02:00 +21°C° 0.6 mm 1 mps 685 mmHg 94%
    03:00 +21°C° 0.6 mm 1 mps 685 mmHg 94%
    04:00 +21°C° 0.6 mm 1 mps 685 mmHg 93%
    05:00 +21°C° 0.1 mm 1 mps 685 mmHg 92%
    06:00 +21°C° 0.1 mm 1 mps 685 mmHg 91%
    07:00 +19°C° 0.1 mm 0 mps 686 mmHg 90%
    08:00 +21°C° 0 mm 0 mps 686 mmHg 85%
    09:00 +24°C° 0 mm 1 mps 687 mmHg 81%
    10:00 +25°C° 0 mm 1 mps 687 mmHg 77%
    11:00 +27°C° 0.2 mm 1 mps 687 mmHg 70%
    12:00 +28°C° 0.2 mm 1 mps 686 mmHg 63%
    13:00 +30°C° 0.2 mm 1 mps 686 mmHg 57%
    14:00 +30°C° 0.2 mm 1 mps 685 mmHg 58%
    15:00 +30°C° 0.2 mm 1 mps 685 mmHg 59%
    16:00 +29°C° 0.2 mm 1 mps 684 mmHg 60%
    17:00 +27°C° 1 mm 1 mps 684 mmHg 71%
    18:00 +25°C° 1 mm 1 mps 685 mmHg 82%
    19:00 +22°C° 1 mm 1 mps 685 mmHg 92%
    20:00 +20°C° 0.3 mm 0 mps 685 mmHg 94%
    21:00 +20°C° 0.3 mm 0 mps 686 mmHg 95%
    22:00 +20°C° 0.3 mm 0 mps 686 mmHg 96%
    23:00 +20°C° 0.2 mm 0 mps 686 mmHg 96%

    25 October, Thursday

    Time Temperature Precipitation Wind Pressure Humidity
    00:00 +19°C° 0.2 mm 0 mps 685 mmHg 97%
    01:00 +19°C° 0.2 mm 0 mps 685 mmHg 97%
    02:00 +19°C° 0.2 mm 0 mps 685 mmHg 96%
    03:00 +21°C° 0.2 mm 1 mps 684 mmHg 96%
    04:00 +21°C° 0.2 mm 1 mps 684 mmHg 95%
    05:00 +21°C° 0.1 mm 1 mps 685 mmHg 94%
    06:00 +21°C° 0.1 mm 1 mps 685 mmHg 93%
    07:00 +21°C° 0.1 mm 1 mps 686 mmHg 91%
    08:00 +24°C° 0.2 mm 1 mps 686 mmHg 83%
    09:00 +26°C° 0.2 mm 1 mps 687 mmHg 74%
    10:00 +28°C° 0.2 mm 1 mps 688 mmHg 65%
    11:00 +29°C° 0.3 mm 1 mps 687 mmHg 62%
    12:00 +29°C° 0.3 mm 1 mps 686 mmHg 59%
    13:00 +30°C° 0.3 mm 1 mps 686 mmHg 56%
    14:00 +29°C° 0.8 mm 1 mps 685 mmHg 61%
    15:00 +29°C° 0.8 mm 1 mps 685 mmHg 66%
    16:00 +28°C° 0.8 mm 1 mps 684 mmHg 72%
    17:00 +26°C° 0.6 mm 1 mps 684 mmHg 78%
    18:00 +25°C° 0.6 mm 1 mps 684 mmHg 84%
    19:00 +21°C° 0.6 mm 0 mps 684 mmHg 90%
    20:00 +21°C° 0.6 mm 0 mps 685 mmHg 90%
    21:00 +22°C° 0.6 mm 1 mps 685 mmHg 90%
    22:00 +22°C° 0.6 mm 1 mps 685 mmHg 91%
    23:00 +22°C° 0 mm 1 mps 685 mmHg 90%

    26 October, Friday

    Time Temperature Precipitation Wind Pressure Humidity
    00:00 +22°C° 0 mm 1 mps 684 mmHg 89%
    01:00 +21°C° 0 mm 1 mps 684 mmHg 88%
    02:00 +21°C° 0 mm 1 mps 684 mmHg 87%
    03:00 +21°C° 0 mm 1 mps 684 mmHg 86%
    04:00 +21°C° 0 mm 1 mps 683 mmHg 85%
    05:00 +21°C° 0 mm 1 mps 684 mmHg 84%
    06:00 +21°C° 0 mm 1 mps 685 mmHg 83%
    07:00 +20°C° 0 mm 0 mps 685 mmHg 82%
    08:00 +24°C° 0 mm 1 mps 686 mmHg 73%
    09:00 +27°C° 0 mm 1 mps 687 mmHg 64%
    10:00 +29°C° 0 mm 1 mps 687 mmHg 54%
    11:00 +30°C° 0.1 mm 1 mps 687 mmHg 52%
    12:00 +31°C° 0.1 mm 1 mps 686 mmHg 50%
    13:00 +32°C° 0.1 mm 2 mps 685 mmHg 48%
    14:00 +31°C° 0.9 mm 1 mps 685 mmHg 53%
    15:00 +30°C° 0.9 mm 1 mps 684 mmHg 58%
    16:00 +29°C° 0.9 mm 1 mps 684 mmHg 64%
    17:00 +27°C° 0.7 mm 1 mps 684 mmHg 70%
    18:00 +26°C° 0.7 mm 1 mps 684 mmHg 76%
    19:00 +24°C° 0.7 mm 1 mps 685 mmHg 83%
    20:00 +23°C° 0.7 mm 1 mps 685 mmHg 86%
    21:00 +22°C° 0.7 mm 1 mps 685 mmHg 89%
    22:00 +20°C° 0.7 mm 0 mps 686 mmHg 92%
    23:00 +20°C° 0.4 mm 0 mps 685 mmHg 92%

    27 October, Saturday

    Time Temperature Precipitation Wind Pressure Humidity
    00:00 +22°C° 0.4 mm 1 mps 685 mmHg 92%
    01:00 +21°C° 0.4 mm 1 mps 684 mmHg 92%
    02:00 +21°C° 0 mm 1 mps 684 mmHg 92%
    03:00 +21°C° 0 mm 1 mps 684 mmHg 92%
    04:00 +21°C° 0 mm 1 mps 684 mmHg 92%
    05:00 +19°C° 0 mm 0 mps 684 mmHg 91%
    06:00 +20°C° 0 mm 0 mps 685 mmHg 90%
    07:00 +20°C° 0 mm 0 mps 686 mmHg 89%
    08:00 +22°C° 0 mm 0 mps 686 mmHg 81%
    09:00 +26°C° 0 mm 1 mps 687 mmHg 72%
    10:00 +28°C° 0 mm 1 mps 687 mmHg 63%
    11:00 +29°C° 0.1 mm 1 mps 687 mmHg 60%
    12:00 +30°C° 0.1 mm 1 mps 686 mmHg 57%
    13:00 +31°C° 0.1 mm 1 mps 685 mmHg 53%
    14:00 +31°C° 0.4 mm 1 mps 685 mmHg 55%
    15:00 +31°C° 0.4 mm 1 mps 685 mmHg 56%
    16:00 +30°C° 0.4 mm 1 mps 684 mmHg 57%
    17:00 +28°C° 3.5 mm 1 mps 685 mmHg 69%
    18:00 +25°C° 3.5 mm 1 mps 685 mmHg 81%
    19:00 +23°C° 3.5 mm 1 mps 685 mmHg 93%
    20:00 +23°C° 1.4 mm 1 mps 686 mmHg 94%
    21:00 +22°C° 1.4 mm 1 mps 686 mmHg 95%
    22:00 +20°C° 1.4 mm 0 mps 686 mmHg 96%
    23:00 +20°C° 0.5 mm 0 mps 686 mmHg 96%

    28 October, Sunday

    Time Temperature Precipitation Wind Pressure Humidity
    00:00 +20°C° 0.5 mm 0 mps 685 mmHg 96%
    01:00 +22°C° 0.5 mm 1 mps 685 mmHg 96%
    02:00 +22°C° 0 mm 1 mps 684 mmHg 95%
    03:00 +22°C° 0 mm 1 mps 684 mmHg 95%
    04:00 +22°C° 0 mm 1 mps 684 mmHg 94%
    05:00 +22°C° 0 mm 1 mps 685 mmHg 93%
    06:00 +22°C° 0 mm 1 mps 685 mmHg 91%
    07:00 +20°C° 0 mm 0 mps 686 mmHg 90%
    08:00 +24°C° 0.2 mm 1 mps 686 mmHg 83%
    09:00 +26°C° 0.2 mm 1 mps 687 mmHg 76%
    10:00 +27°C° 0.2 mm 1 mps 687 mmHg 69%
    11:00 +28°C° 0.7 mm 1 mps 687 mmHg 66%
    12:00 +30°C° 0.7 mm 1 mps 686 mmHg 62%
    13:00 +31°C° 0.7 mm 1 mps 686 mmHg 58%
    14:00 +30°C° 0.9 mm 1 mps 685 mmHg 60%
    15:00 +30°C° 0.9 mm 1 mps 685 mmHg 61%
    16:00 +29°C° 0.9 mm 1 mps 684 mmHg 63%
    17:00 +27°C° 1.6 mm 1 mps 685 mmHg 72%
    18:00 +25°C° 1.6 mm 1 mps 685 mmHg 81%
    19:00 +23°C° 1.6 mm 1 mps 685 mmHg 90%
    20:00 +23°C° 0.4 mm 1 mps 685 mmHg 91%
    21:00 +21°C° 0.4 mm 0 mps 685 mmHg 92%
    22:00 +21°C° 0.4 mm 0 mps 685 mmHg 92%
    23:00 +22°C° 0.3 mm 1 mps 685 mmHg 92%
    Show more